Change the Weather History Date:

Tuesday, December 3, 2013

  Actual Average (KFSM) Record (KFSM)
Temperature  
Mean Temperature 54 °F 44 °F  
Max Temperature 71 °F 55 °F 80 °F (2012)
Min Temperature 37 °F 34 °F 15 °F (1895)
Degree Days  
Heating Degree Days 11 21  
Month to date heating degree days 61  
Since 1 July heating degree days 626  
Growing Degree Days 4 (Base 50)    
Moisture  
Dew Point 47 °F    
Average Humidity 94    
Maximum Humidity 100    
Minimum Humidity 68    
Precipitation  
Precipitation 0.00 in 0.12 in 1.64 in (1973)
Month to date precipitation 0.38  
Year to date precipitation 42.55  
Sea Level Pressure  
Sea Level Pressure 29.62 in    
Wind  
Wind Speed 1 mph (North)    
Max Wind Speed 10 mph    
Max Gust Speed -    
Visibility 4 miles    
Events Fog    
T = Trace of Precipitation, MM = Missing Value Source: NWS Daily Summary

Daily Weather History Graph

Daily Weather History Graph

Search for Another Location

Airport or City:

Trip Planner

Search our weather history database for the weather conditions in past years. The results will help you decide how hot, cold, wet, or windy it might be!

Date:

Astronomy

Dec. 03, 2013 Rise Set
Actual Time 7:10 AM CST 5:06 PM CST
Civil Twilight 6:42 AM CST 5:34 PM CST
Nautical Twilight 6:10 AM CST 6:05 PM CST
Astronomical Twilight 5:40 AM CST 6:36 PM CST
Moon 7:41 AM CST (12/3) 6:10 PM CST (12/3)
Length of Visible Light 10h 52m
Length of Day
9h 56m
New Moon, 1% of the Moon is Illuminated
Dec 3
New Moon
Dec 9
First Quarter
Dec 17
Full
Dec 25
Last Quarter
Jan 1
New

Hourly Weather History & Observations

Time (CST) Temp. Windchill Dew Point Humidity Pressure Visibility Wind Dir Wind Speed Gust Speed Precip Events Conditions
12:15 AM 42.8 °F - 42.8 °F 100% 29.70 in 1.8 mi Calm Calm - N/A   Mist
12:35 AM 42.8 °F - 42.8 °F 100% 29.70 in 0.5 mi Calm Calm - N/A Fog Fog
12:55 AM 42.8 °F - 42.8 °F 100% 29.69 in 1.2 mi Calm Calm - N/A   Mist
1:15 AM 41.0 °F - 41.0 °F 100% 29.68 in 0.2 mi Calm Calm - N/A Fog Fog
1:35 AM 41.0 °F - 41.0 °F 100% 29.67 in 0.2 mi Calm Calm - N/A Fog Fog
1:55 AM 41.0 °F - 41.0 °F 100% 29.67 in 0.2 mi Calm Calm - N/A Fog Fog
2:15 AM 41.0 °F - 41.0 °F 100% 29.67 in 0.2 mi Calm Calm - N/A Fog Fog
2:35 AM 41.0 °F - 41.0 °F 100% 29.67 in 0.5 mi Calm Calm - N/A Fog Fog
2:55 AM 41.0 °F - 41.0 °F 100% 29.67 in 0.8 mi Calm Calm - N/A   Mist
3:15 AM 41.0 °F - 41.0 °F 100% 29.66 in 0.2 mi Calm Calm - N/A Fog Fog
3:35 AM 41.0 °F - 41.0 °F 100% 29.66 in 0.2 mi Calm Calm - N/A Fog Fog
3:55 AM 41.0 °F - 41.0 °F 100% 29.65 in 0.2 mi Calm Calm - N/A Fog Fog
4:15 AM 39.2 °F - 39.2 °F 100% 29.64 in 0.2 mi Calm Calm - N/A Fog Fog
4:35 AM 37.4 °F - 37.4 °F 100% 29.63 in 0.5 mi Calm Calm - N/A Fog Fog
4:55 AM 39.2 °F - 39.2 °F 100% 29.63 in 0.8 mi Calm Calm - N/A   Mist
5:15 AM 39.2 °F - 39.2 °F 100% 29.63 in 0.8 mi Calm Calm - N/A   Mist
5:35 AM 39.2 °F - 39.2 °F 100% 29.63 in 1.0 mi Calm Calm - N/A   Mist
5:55 AM 39.2 °F - 39.2 °F 100% 29.63 in 0.2 mi Calm Calm - N/A   Unknown
6:15 AM 39.2 °F - 39.2 °F 100% 29.63 in 0.2 mi Calm Calm - N/A   Unknown
6:35 AM 39.2 °F - 39.2 °F 100% 29.63 in 0.2 mi Calm Calm - N/A Fog Fog
6:55 AM 39.2 °F - 39.2 °F 100% 29.65 in 0.2 mi Calm Calm - N/A Fog Fog
7:15 AM 39.2 °F - 39.2 °F 100% 29.65 in 0.2 mi Calm Calm - N/A Fog Fog
7:35 AM 39.2 °F - 39.2 °F 100% 29.65 in 0.2 mi Calm Calm - N/A Fog Fog
7:55 AM 41.0 °F - 41.0 °F 100% 29.65 in 0.2 mi Calm Calm - N/A Fog Fog
8:15 AM 41.0 °F - 41.0 °F 100% 29.65 in 0.2 mi Calm Calm - N/A Fog Fog
8:35 AM 41.0 °F - 41.0 °F 100% 29.65 in 0.2 mi Calm Calm - N/A Fog Fog
8:55 AM 41.0 °F - 41.0 °F 100% 29.65 in 0.2 mi Calm Calm - N/A Fog Fog
9:15 AM 42.8 °F - 42.8 °F 100% 29.65 in 0.2 mi Calm Calm - N/A Fog Fog
9:35 AM 42.8 °F - 42.8 °F 100% 29.66 in 0.8 mi Calm Calm - N/A   Mist
9:55 AM 42.8 °F 40.1 °F 42.8 °F 100% 29.66 in 0.2 mi North 4.6 mph - N/A Fog Fog
10:15 AM 44.6 °F - 44.6 °F 100% 29.65 in 0.2 mi Calm Calm - N/A Fog Fog
10:35 AM 44.6 °F 43.1 °F 44.6 °F 100% 29.65 in 0.2 mi NE 3.5 mph - N/A Fog Fog
10:55 AM 48.2 °F - 48.2 °F 100% 29.63 in 0.8 mi Calm Calm - N/A   Mist
11:15 AM 50.0 °F - 50.0 °F 100% 29.62 in 3.0 mi Calm Calm - N/A   Mist
11:35 AM 51.8 °F - 51.8 °F 100% 29.61 in 7.0 mi North 9.2 mph - N/A   Unknown
11:55 AM 55.4 °F - 55.4 °F 100% 29.60 in 7.0 mi North 8.1 mph - N/A   Unknown
12:15 PM 55.4 °F - 55.4 °F 100% 29.60 in 7.0 mi North 10.4 mph - N/A   Unknown
12:35 PM 59.0 °F - 57.2 °F 94% 29.59 in 7.0 mi North 8.1 mph - N/A   Unknown
12:55 PM 60.8 °F - 55.4 °F 82% 29.57 in 10.0 mi North 5.8 mph - N/A   Unknown
1:15 PM 62.6 °F - 55.4 °F 77% 29.56 in 10.0 mi NNE 4.6 mph - N/A   Unknown
1:35 PM 66.2 °F - 59.0 °F 78% 29.55 in 10.0 mi North 5.8 mph - N/A   Unknown
1:55 PM 68.0 °F - 59.0 °F 73% 29.53 in 10.0 mi North 6.9 mph - N/A   Unknown
2:15 PM 71.6 °F - 60.8 °F 69% 29.52 in 10.0 mi North 6.9 mph - N/A   Unknown
2:35 PM 71.6 °F - 60.8 °F 69% 29.52 in 10.0 mi North 5.8 mph - N/A   Unknown
2:55 PM 71.6 °F - 60.8 °F 69% 29.52 in 10.0 mi North 5.8 mph - N/A   Unknown
3:15 PM 71.6 °F - 60.8 °F 69% 29.51 in 10.0 mi North 5.8 mph - N/A   Unknown
3:35 PM 71.6 °F - 60.8 °F 69% 29.52 in 10.0 mi NNW 4.6 mph - N/A   Unknown
3:55 PM 71.6 °F - 60.8 °F 69% 29.53 in 10.0 mi Calm Calm - N/A   Unknown
4:15 PM 68.0 °F - 57.2 °F 68% 29.54 in 10.0 mi South 8.1 mph - N/A   Unknown
4:35 PM 64.4 °F - 55.4 °F 73% 29.55 in 10.0 mi South 10.4 mph - N/A   Unknown
4:55 PM 62.6 °F - 55.4 °F 77% 29.57 in 10.0 mi South 5.8 mph - N/A   Unknown
5:15 PM 60.8 °F - 55.4 °F 82% 29.57 in 10.0 mi SSE 4.6 mph - N/A   Unknown
5:35 PM 59.0 °F - 53.6 °F 82% 29.58 in 10.0 mi SSE 4.6 mph - N/A   Unknown
5:55 PM 55.4 °F - 53.6 °F 94% 29.59 in 10.0 mi South 3.5 mph - N/A   Unknown
6:15 PM 55.4 °F - 53.6 °F 94% 29.60 in 10.0 mi Calm Calm - N/A   Unknown
6:35 PM 53.6 °F - 51.8 °F 94% 29.61 in 10.0 mi Calm Calm - N/A   Unknown
6:55 PM 53.6 °F - 51.8 °F 94% 29.61 in 10.0 mi Calm Calm - N/A   Unknown
7:15 PM 51.8 °F - 50.0 °F 94% 29.62 in 7.0 mi Calm Calm - N/A   Unknown
7:35 PM 51.8 °F - 50.0 °F 94% 29.62 in 7.0 mi Calm Calm - N/A   Unknown
7:55 PM 50.0 °F - 50.0 °F 100% 29.62 in 5.0 mi Calm Calm - N/A   Mist
8:15 PM 48.2 °F - 48.2 °F 100% 29.62 in 3.0 mi Calm Calm - N/A   Mist
8:35 PM 48.2 °F - 48.2 °F 100% 29.63 in 2.5 mi Calm Calm - N/A   Mist
8:55 PM 44.6 °F - 44.6 °F 100% 29.62 in 2.0 mi Calm Calm - N/A   Mist
9:15 PM 44.6 °F - 44.6 °F 100% 29.62 in 2.5 mi Calm Calm - N/A   Mist
9:35 PM 44.6 °F - 44.6 °F 100% 29.63 in 2.5 mi Calm Calm - N/A   Mist
9:55 PM 44.6 °F - 44.6 °F 100% 29.62 in 3.0 mi Calm Calm - N/A   Mist
10:15 PM 42.8 °F - 42.8 °F 100% 29.61 in 4.0 mi Calm Calm - N/A   Mist
10:35 PM 42.8 °F - 42.8 °F 100% 29.61 in 7.0 mi Calm Calm - N/A   Unknown
10:55 PM 42.8 °F - 42.8 °F 100% 29.61 in 10.0 mi Calm Calm - N/A   Unknown
11:15 PM 41.0 °F - 41.0 °F 100% 29.61 in 0.5 mi Calm Calm - N/A Fog Fog
11:35 PM 42.8 °F - 42.8 °F 100% 29.62 in 7.0 mi Calm Calm - N/A   Unknown
11:55 PM 41.0 °F - 41.0 °F 100% 29.62 in 0.2 mi Calm Calm - N/A Fog Fog